Weather History for Weaverville, CA

Change the Weather History Date:

Saturday, February 2, 2013

  Actual Average (KRDD) Record (KRDD)
Temperature  
Mean Temperature 42 °F -  
Max Temperature 57 °F 57 °F 74 °F (2005)
Min Temperature 26 °F 38 °F 27 °F (2007)
Degree Days  
Heating Degree Days 24    
Cooling Degree Days 0    
Moisture  
Dew Point 29 °F    
Average Humidity 80    
Maximum Humidity 100    
Minimum Humidity 38    
Precipitation  
Precipitation 0.00 in 0.20 in 2.00 in (1991)
Month to date precipitation 0.39  
Year to date precipitation 6.35  
Since 1 July precipitation 20.11  
Sea Level Pressure  
Sea Level Pressure 30.28 in    
Wind  
Wind Speed 0 mph (NNW)    
Max Wind Speed 4 mph    
Max Gust Speed -    
Visibility 9 miles    
Events      
T = Trace of Precipitation, MM = Missing Value Source: NWS Daily Summary

Daily Weather History Graph

Daily Weather History Graph

Search for Another Location

Airport:

Trip Planner

Search our weather history database for the weather conditions in past years. The results will help you decide how hot, cold, wet, or windy it might be!

Date:

Astronomy

Feb. 02, 2013 Rise Set
Actual Time 7:20 AM PST 5:31 PM PST
Civil Twilight 6:51 AM PST 5:59 PM PST
Nautical Twilight 6:18 AM PST 6:32 PM PST
Astronomical Twilight 5:46 AM PST 7:04 PM PST
Moon No Moon Rise 10:31 AM PST (2/2)
Length of Visible Light 11h 08m
Length of Day
10h 10m
Waning Gibbous, 58% of the Moon is Illuminated
Feb 2
Waning Gibbous
Feb 3
Last Quarter
Feb 9
New
Feb 17
First Quarter
Feb 25
Full

Hourly Weather History & Observations

Time (PST) Temp. Windchill Dew Point Humidity Pressure Visibility Wind Dir Wind Speed Gust Speed Precip Events Conditions
12:15 AM 28.4 °F - 26.6 °F 93% 30.29 in 7.0 mi Calm Calm - N/A   Unknown
12:35 AM 28.4 °F - 26.6 °F 93% 30.29 in 9.0 mi Calm Calm - N/A   Unknown
12:55 AM 28.4 °F - 26.6 °F 93% 30.29 in 10.0 mi Calm Calm - N/A   Unknown
1:15 AM 28.4 °F - 26.6 °F 93% 30.30 in 8.0 mi Calm Calm - N/A   Unknown
1:35 AM 28.4 °F - 26.6 °F 93% 30.30 in 9.0 mi Calm Calm - N/A   Unknown
1:55 AM 28.4 °F - 26.6 °F 93% 30.30 in 10.0 mi Calm Calm - N/A   Unknown
2:15 AM 28.4 °F 24.6 °F 26.6 °F 93% 30.31 in 10.0 mi North 3.5 mph - N/A   Unknown
2:35 AM 28.4 °F - 26.6 °F 93% 30.31 in 8.0 mi Calm Calm - N/A   Unknown
2:55 AM 28.4 °F - 26.6 °F 93% 30.30 in 8.0 mi Calm Calm - N/A   Unknown
3:15 AM 28.4 °F - 26.6 °F 93% 30.30 in 8.0 mi Calm Calm - N/A   Unknown
3:35 AM 28.4 °F - 26.6 °F 93% 30.30 in 10.0 mi Calm Calm - N/A   Unknown
3:55 AM 28.4 °F - 26.6 °F 93% 30.30 in 10.0 mi Calm Calm - N/A   Unknown
4:15 AM 28.4 °F - 26.6 °F 93% 30.31 in 10.0 mi Calm Calm - N/A   Unknown
4:35 AM 28.4 °F - 26.6 °F 93% 30.30 in 10.0 mi Calm Calm - N/A   Unknown
4:55 AM 26.6 °F - 26.6 °F 100% 30.30 in 10.0 mi Calm Calm - N/A   Unknown
5:15 AM 26.6 °F - 26.6 °F 100% 30.30 in 10.0 mi Calm Calm - N/A   Unknown
5:35 AM 26.6 °F - 26.6 °F 100% 30.30 in 9.0 mi Calm Calm - N/A   Unknown
5:55 AM 26.6 °F - 24.8 °F 93% 30.29 in 10.0 mi Calm Calm - N/A   Unknown
6:15 AM 26.6 °F - 24.8 °F 93% 30.30 in 10.0 mi Calm Calm - N/A   Unknown
6:35 AM 26.6 °F - 24.8 °F 93% 30.30 in 10.0 mi Calm Calm - N/A   Unknown
6:55 AM 26.6 °F - 24.8 °F 93% 30.31 in 10.0 mi Calm Calm - N/A   Unknown
7:15 AM 26.6 °F - 24.8 °F 93% 30.31 in 10.0 mi Calm Calm - N/A   Unknown
7:35 AM 26.6 °F - 24.8 °F 93% 30.32 in 9.0 mi Calm Calm - N/A   Unknown
7:55 AM 26.6 °F - 24.8 °F 93% 30.33 in 10.0 mi Calm Calm - N/A   Unknown
8:15 AM 26.6 °F - 24.8 °F 93% 30.33 in 8.0 mi Calm Calm - N/A   Unknown
8:35 AM 28.4 °F - 26.6 °F 93% 30.34 in 10.0 mi Calm Calm - N/A   Unknown
8:55 AM 28.4 °F - 26.6 °F 93% 30.34 in 10.0 mi Calm Calm - N/A   Unknown
9:15 AM 30.2 °F - 28.4 °F 93% 30.34 in 10.0 mi Calm Calm - N/A   Unknown
9:35 AM 32.0 °F - 28.4 °F 87% 30.34 in 10.0 mi Calm Calm - N/A   Unknown
9:55 AM 32.0 °F - 30.2 °F 93% 30.34 in 10.0 mi Calm Calm - N/A   Unknown
10:15 AM 35.6 °F - 32.0 °F 87% 30.34 in 10.0 mi Calm Calm - N/A   Unknown
10:35 AM 37.4 °F - 32.0 °F 81% 30.34 in 10.0 mi Calm Calm - N/A   Unknown
10:55 AM 37.4 °F - 32.0 °F 81% 30.34 in 10.0 mi Calm Calm - N/A   Unknown
11:15 AM 39.2 °F - 32.0 °F 75% 30.33 in 10.0 mi Calm Calm - N/A   Unknown
11:35 AM 41.0 °F - 32.0 °F 70% 30.32 in 10.0 mi Calm Calm - N/A   Unknown
11:55 AM 42.8 °F - 32.0 °F 66% 30.31 in 10.0 mi Calm Calm - N/A   Unknown
12:15 PM 44.6 °F - 32.0 °F 61% 30.31 in 10.0 mi Calm Calm - N/A   Unknown
12:35 PM 46.4 °F - 32.0 °F 57% 30.30 in 10.0 mi Calm Calm - N/A   Unknown
12:55 PM 48.2 °F - 32.0 °F 54% 30.29 in 10.0 mi Calm Calm - N/A   Unknown
1:15 PM 48.2 °F - 32.0 °F 54% 30.28 in 10.0 mi Calm Calm - N/A   Unknown
1:35 PM 50.0 °F - 32.0 °F 50% 30.27 in 10.0 mi Calm Calm - N/A   Unknown
1:55 PM 50.0 °F - 32.0 °F 50% 30.26 in 10.0 mi Calm Calm - N/A   Unknown
2:15 PM 53.6 °F - 32.0 °F 44% 30.25 in 10.0 mi Calm Calm - N/A   Unknown
2:35 PM 53.6 °F - 33.8 °F 47% 30.24 in 10.0 mi SW 3.5 mph - N/A   Unknown
2:55 PM 55.4 °F - 32.0 °F 41% 30.24 in 10.0 mi WSW 3.5 mph - N/A   Unknown
3:15 PM 55.4 °F - 32.0 °F 41% 30.24 in 10.0 mi Calm Calm - N/A   Unknown
3:35 PM 57.2 °F - 32.0 °F 38% 30.23 in 10.0 mi Calm Calm - N/A   Unknown
3:55 PM 57.2 °F - 32.0 °F 38% 30.23 in 10.0 mi Calm Calm - N/A   Unknown
4:15 PM 57.2 °F - 35.6 °F 44% 30.23 in 10.0 mi Calm Calm - N/A   Unknown
4:35 PM 57.2 °F - 35.6 °F 44% 30.23 in 10.0 mi SW 3.5 mph - N/A   Unknown
4:55 PM 55.4 °F - 37.4 °F 51% 30.23 in 10.0 mi NNE 3.5 mph - N/A   Unknown
5:15 PM 48.2 °F - 35.6 °F 62% 30.24 in 10.0 mi Calm Calm - N/A   Unknown
5:35 PM 44.6 °F - 33.8 °F 66% 30.23 in 10.0 mi Calm Calm - N/A   Unknown
5:55 PM 42.8 °F - 32.0 °F 66% 30.24 in 10.0 mi Calm Calm - N/A   Unknown
6:15 PM 41.0 °F - 33.8 °F 76% 30.24 in 10.0 mi Calm Calm - N/A   Unknown
6:35 PM 39.2 °F - 32.0 °F 75% 30.24 in 10.0 mi Calm Calm - N/A   Unknown
6:55 PM 37.4 °F 34.9 °F 32.0 °F 81% 30.24 in 9.0 mi NNE 3.5 mph - N/A   Unknown
7:15 PM 35.6 °F - 32.0 °F 87% 30.25 in 9.0 mi Calm Calm - N/A   Unknown
7:35 PM 35.6 °F 32.8 °F 32.0 °F 87% 30.25 in 9.0 mi NNE 3.5 mph - N/A   Unknown
7:55 PM 35.6 °F - 32.0 °F 87% 30.25 in 10.0 mi Calm Calm - N/A   Unknown
8:15 PM 35.6 °F - 32.0 °F 87% 30.25 in 9.0 mi Calm Calm - N/A   Unknown
8:35 PM 32.0 °F - 30.2 °F 93% 30.25 in 9.0 mi Calm Calm - N/A   Unknown
8:55 PM 32.0 °F - 30.2 °F 93% 30.25 in 8.0 mi Calm Calm - N/A   Unknown
9:15 PM 32.0 °F - 30.2 °F 93% 30.26 in 7.0 mi Calm Calm - N/A   Unknown
9:35 PM 32.0 °F - 28.4 °F 87% 30.26 in 8.0 mi Calm Calm - N/A   Unknown
9:55 PM 32.0 °F - 28.4 °F 87% 30.26 in 9.0 mi Calm Calm - N/A   Unknown
10:15 PM 32.0 °F - 28.4 °F 87% 30.26 in 9.0 mi Calm Calm - N/A   Unknown
10:35 PM 32.0 °F - 28.4 °F 87% 30.26 in 7.0 mi Calm Calm - N/A   Unknown
10:55 PM 30.2 °F - 28.4 °F 93% 30.26 in 10.0 mi Calm Calm - N/A   Unknown
11:15 PM 30.2 °F - 28.4 °F 93% 30.26 in 7.0 mi Calm Calm - N/A   Unknown
11:35 PM 30.2 °F - 28.4 °F 93% 30.27 in 5.0 mi Calm Calm - N/A   Unknown
11:55 PM 30.2 °F - 28.4 °F 93% 30.27 in 5.0 mi Calm Calm - N/A   Unknown